Location: Newark
(41.4948°N, 13.7689°E)
Time: 07:45:43
(UTC+00:00)

ISS - Visible Passes

Search period start: 09 December 2019 00:00
Search period end: 19 December 2019 00:00
Orbit: 411 x 421 km, 51.6° (Epoch: 09 December)

Date Brightness Start Highest point End Pass type
(mag) Time Alt. Az. Time Alt. Az. Time Alt. Az.
09 Dec -3.8 16:39:23 10° NW 16:42:44 63° NNE 16:45:23 15° ESE visible
09 Dec -0.7 18:17:02 10° W 18:18:22 15° WSW 18:18:22 15° WSW visible
10 Dec -1.7 17:27:57 10° WNW 17:30:50 27° SW 17:33:05 14° S visible
11 Dec -2.7 16:39:14 10° WNW 16:42:28 46° SW 16:45:42 10° SSE visible
13 Dec -0.6 16:39:43 10° W 16:41:57 17° SW 16:44:12 10° S visible
